Simultaneous Nadir Overpasses (SNOs) Predictions

Prediction of SNOs between GOES-15 and METOP-C Satellite Orbit:

Table of predicted SNOs for the next 14.0 days since TLE Epoch: 4/23/2022
Index Date Time (GOES-15) GOES-15 Lat,Lon METOP-C Lat,Lon Distance(km) Time Diff (sec)
1 04/23/2022 06:09:02 0.14,-128.27 0.00,-129.43 129.49 0
2 04/24/2022 05:49:41 0.13,-128.26 1.01,-124.41 438.66 80
3 04/25/2022 18:05:52 -0.14,-128.29 0.01,-128.97 77.93 80
4 04/26/2022 17:47:52 -0.14,-128.27 -1.07,-123.97 489.68 80
5 04/28/2022 06:04:12 0.15,-128.19 0.09,-128.57 42.84 80
6 04/30/2022 18:05:03 -0.15,-128.20 -0.17,-128.13 8.02 80
7 05/03/2022 06:03:23 0.16,-128.10 0.27,-127.73 41.85 80
8 05/04/2022 18:19:33 -0.17,-128.11 0.77,-132.29 475.98 80
9 05/05/2022 18:01:34 -0.17,-128.09 -0.38,-127.30 90.62 80
